DW3261 Weather Reports


time (UTC)temp
F
wind
direction
speed
knots
gust
knots
rain 1hr
in
rain 24hr
in
rain mn
in
humidity
%
barometer
mb
20260503204315 68 172 9.6 19.1 0.00 0.00 0.00 49 1004.2
20260503203310 68 197 5.2 14.8 0.00 0.00 0.00 50 1004.3
20260503202323 67 148 4.3 19.1 0.00 0.00 0.00 47 1004.4
20260503201314 67 202 2.6 17.4 0.00 0.00 0.00 49 1004.6
20260503195322 68 155 6.1 17.4 0.00 0.00 0.00 46 1004.8
20260503194313 68 215 7.0 17.4 0.00 0.00 0.00 47 1004.8
20260503193322 68 186 2.6 16.5 0.00 0.00 0.00 45 1004.9
20260503192316 68 132 7.0 17.4 0.00 0.00 0.00 46 1004.9
20260503191311 68 165 5.2 16.5 0.00 0.00 0.00 44 1005.0
20260503190322 67 178 4.3 19.1 0.00 0.00 0.00 48 1005.1
20260503185312 67 184 6.1 22.6 0.00 0.00 0.00 47 1005.3
20260503183321 66 208 6.1 20.0 0.00 0.00 0.00 51 1005.6
20260503182311 66 154 8.7 16.5 0.00 0.00 0.00 52 1006.0
20260503180319 64 172 7.8 13.9 0.00 0.00 0.00 56 1006.2
20260503173315 62 131 9.6 16.5 0.00 0.00 0.00 57 1006.9
20260503172311 61 210 5.2 17.4 0.00 0.00 0.00 58 1007.1
20260503171321 60 186 9.6 16.5 0.00 0.00 0.00 58 1007.3
20260503170312 59 161 7.8 12.2 0.00 0.00 0.00 57 1007.6
20260503150319 60 221 1.7 20.9 0.00 0.00 0.00 52 1008.4
20260503140314 57 246 4.3 13.0 0.00 0.00 0.00 58 1009.1
20260503131312 53 163 0.9 9.6 0.00 0.00 0.00 58 1009.6
20260503130327 53 244 0.9 10.4 0.00 0.00 0.00 57 1009.6
20260503110316 50 232 0.0 7.8 0.00 0.00 0.00 57 1009.5
20260503090310 48 225 0.9 8.7 0.00 0.00 0.00 58 1010.2
20260503081311 47 172 0.9 6.1 0.00 0.00 0.00 60 1010.7
20260503080326 47 176 0.0 3.5 0.00 0.00 0.00 60 1010.8
20260503072311 46 176 0.9 5.2 0.00 0.00 0.00 62 1010.9
20260503071322 45 176 0.9 6.1 0.00 0.00 0.00 63 1011.1
20260503070311 45 179 0.9 3.5 0.00 0.00 0.00 64 1011.2
20260503060311 44 179 0.0 1.7 0.00 0.00 0.00 65 1011.6
20260503053329 42 179 0.0 1.7 0.00 0.00 0.00 67 1011.9
20260503052320 41 179 0.0 0.9 0.00 0.00 0.00 67 1011.9
20260503051311 41 179 0.0 0.9 0.00 0.00 0.00 66 1012.0
20260503050321 41 179 0.0 0.0 0.00 0.00 0.00 67 1012.1
20260503045316 41 179 0.0 0.0 0.00 0.00 0.00 67 1012.1
20260503044310 42 179 0.0 0.0 0.00 0.00 0.00 67 1012.2
20260503043321 42 179 0.0 0.0 0.00 0.00 0.00 67 1012.2
20260503041330 43 179 0.0 0.9 0.00 0.00 0.00 67 1012.4
20260503040321 43 179 0.0 0.9 0.00 0.00 0.00 67 1012.4
20260503034311 43 179 0.9 3.5 0.00 0.00 0.00 67 1012.6
20260503033323 43 179 0.0 0.9 0.00 0.00 0.00 67 1012.6
20260503032314 43 179 0.0 1.7 0.00 0.00 0.00 67 1012.7
20260503031326 43 179 0.0 1.7 0.00 0.00 0.00 67 1012.9
20260503030320 44 179 0.0 4.3 0.00 0.00 0.00 66 1012.9
20260503025310 44 179 0.9 3.5 0.00 0.00 0.00 66 1013.1
20260503022312 45 179 0.9 3.5 0.00 0.00 0.00 65 1013.1
20260503021322 45 179 0.0 3.5 0.00 0.00 0.00 65 1013.2
20260503020314 45 179 0.9 3.5 0.00 0.00 0.00 64 1013.1
20260503015325 46 179 0.0 3.5 0.00 0.00 0.00 63 1013.1
20260503014319 46 179 0.0 5.2 0.00 0.00 0.00 63 1013.0
20260503013309 47 179 0.9 5.2 0.00 0.00 0.00 62 1012.9
20260503011318 47 180 0.9 4.3 0.00 0.00 0.00 60 1013.0
20260503010309 48 181 1.7 4.3 0.00 0.00 0.00 60 1013.0
20260503005323 48 182 1.7 5.2 0.00 0.00 0.00 60 1013.0
20260503003311 49 186 0.0 4.3 0.00 0.00 0.00 60 1013.1
20260503001314 50 188 0.9 2.6 0.00 0.00 0.00 60 1013.2
20260503000326 50 188 0.9 5.2 0.00 0.00 0.00 60 1013.2
20260502235319 51 189 1.7 4.3 0.00 0.00 0.00 59 1013.3
20260502234313 51 189 1.7 4.3 0.00 0.00 0.00 59 1013.3
20260502233326 52 190 1.7 7.0 0.00 0.00 0.00 58 1013.4
20260502231314 52 156 2.6 5.2 0.00 0.00 0.00 57 1013.6
20260502230325 52 157 0.9 6.1 0.00 0.00 0.00 57 1013.7
20260502224329 53 181 0.9 5.2 0.00 0.00 0.00 55 1013.9
20260502223323 52 167 3.5 8.7 0.00 0.00 0.00 55 1014.1
20260502222314 52 257 0.9 9.6 0.00 0.00 0.00 53 1014.1
20260502215315 51 157 5.2 7.8 0.00 0.00 0.00 54 1014.4
20260502214326 52 202 3.5 7.0 0.00 0.00 0.00 52 1014.4
20260502213319 51 161 3.5 9.6 0.00 0.00 0.00 54 1014.6
20260502212316 53 146 0.9 10.4 0.00 0.00 0.00 50 1014.8
20260502210320 53 154 4.3 9.6 0.00 0.00 0.00 50 1014.8
20260502205313 55 175 3.5 7.8 0.00 0.00 0.00 48 1014.8